• MPC Preparation (Info)

  • MPEC 2010-K26 : 2010 KU7

    The following Minor Planet Electronic Circular may be linked-to from your own Web pages, but must not otherwise be redistributed electronically.

    A form allowing access to any MPEC is at the bottom of this page.


    Read MPEC 2010-K25 Read MPEC 2010-K27


    M.P.E.C. 2010-K26                                Issued 2010 May 20, 15:22 UT
    
         The Minor Planet Electronic Circulars contain information on unusual
             minor planets and routine data on comets.  They are published
       on behalf of Commission 20 of the International Astronomical Union by the
              Minor Planet Center, Smithsonian Astrophysical Observatory,
                              Cambridge, MA 02138, U.S.A.
    
                 Prepared using the Tamkin Foundation Computer Network
    
                                  MPC@CFA.HARVARD.EDU
           URL https://www.minorplanetcenter.org/iau/mpc.html  ISSN 1523-6714
    
                                       2010 KU7
    
    Observations:
         K10K07U* C2010 05 17.15733 10 27 48.06 +06 50 36.6          21.7 V EK026G96
         K10K07U  C2010 05 17.16321 10 27 48.09 +06 50 22.8          21.9 V EK026G96
         K10K07U  C2010 05 17.16918 10 27 48.16 +06 50 08.3          21.2 V EK026G96
         K10K07U  C2010 05 17.17506 10 27 48.24 +06 49 54.6          21.8 V EK026G96
         K10K07U  C2010 05 17.23171 10 27 48.81 +06 47 38.1          21.2 V EK026G96
         K10K07U  C2010 05 17.23853 10 27 48.92 +06 47 22.4          20.8 V EK026G96
         K10K07U  C2010 05 17.24539 10 27 49.03 +06 47 05.2          21.1 V EK026G96
         K10K07U  C2010 05 17.25226 10 27 49.14 +06 46 48.4          21.2 V EK026G96
         K10K07U  C2010 05 17.28419 10 27 49.57 +06 45 30.4          21.1 R EK026H01
         K10K07U  C2010 05 17.28722 10 27 49.60 +06 45 23.1          21.7 R EK026H01
         K10K07U KC2010 05 17.29138 10 27 49.72 +06 45 13.3          21.0 R EK026H01
         K10K07U KC2010 05 17.29649 10 27 49.77 +06 45 00.7          21.1 R EK026H01
         K10K07U HC2010 05 19.18274 10 28 36.62 +05 28 09.3                 EK026291
         K10K07U HC2010 05 19.18643 10 28 36.64 +05 27 59.5                 EK026291
         K10K07U  C2010 05 19.19018 10 28 36.74 +05 27 49.6                 EK026291
         K10K07U  C2010 05 20.22395 10 29 06.09 +04 44 14.6          22.0 V EK026291
         K10K07U HC2010 05 20.22791 10 29 06.16 +04 44 00.2                 EK026291
         K10K07U  C2010 05 20.23181 10 29 06.17 +04 43 53.1          22.6 V EK026291
    
    Observer details:
    291 LPL/Spacewatch II.  Observers T. H. Bressi, J. V. Scotti.  1.8-m f/2.7
        reflector + CCD.
    G96 Mt. Lemmon Survey.  Observer S. M. Larson.  Measurers J. D. Ahern,
        E. C. Beshore, A. Boattini, G. J. Garradd, A. R. Gibbs, A. D. Grauer,
        R. E. Hill, R. A. Kowalski, S. M. Larson, R. H. McNaught.  1.5-m reflector
        + CCD.
    H01 Magdalena Ridge Observatory, Socorro.  Observers W. H. Ryan, E. V. Ryan.
        Measurer W. H. Ryan.  2.4-m f/8.9 reflector + CCD.
    
    Orbital elements:
    2010 KU7                                                 Earth MOID = 0.0506 AU
    Epoch 2010 July 23.0 TT = JDT 2455400.5                 MPC
    M  17.13732              (2000.0)            P               Q
    n   0.45118492     Peri.  215.74903     -0.25884421     +0.96300221
    a   1.6835771      Node    39.40355     -0.85648563     -0.19292235
    e   0.3872505      Incl.    6.78629     -0.44657815     -0.18816935
    P   2.18           H   22.2           G   0.15           U   9
    Residuals in seconds of arc
    100517 G96  0.1-  0.3-    100517 G96  0.4+  0.0     100519 291  0.2+  0.5+
    100517 G96  0.4-  0.0     100517 G96  0.7+  0.3-    100519 291  0.4-  0.0
    100517 G96  0.1-  0.2-    100517 H01  0.1-  0.1-    100519 291  0.2+  0.5-
    100517 G96  0.3+  0.2+    100517 H01  0.4-  0.1-    100520 291  0.5+  1.8+
    100517 G96  0.2-  0.1-    100517 H01  0.3+  0.2+    100520 291  0.3+  2.4-
    100517 G96  0.1+  0.6+    100517 H01  0.4-  0.1-    100520 291  0.8-  0.6+
    
    Ephemeris:
    2010 KU7                 a,e,i = 1.68, 0.39, 7                   q = 1.0316
    Date    TT    R. A. (2000) Decl.     Delta      r     Elong.  Phase     V
    2010 05 14    10 26.97   +08 51.9    0.233    1.084   102.2    65.6    21.5
    2010 05 24    10 31.37   +01 56.2    0.214    1.057    96.1    72.3    21.5
    2010 06 03    10 40.47   -06 46.2    0.194    1.039    92.0    77.2    21.4
    2010 06 13    10 54.75   -17 39.4    0.175    1.032    90.4    79.8    21.3
    2010 06 23    11 17.06   -30 58.5    0.160    1.035    92.2    78.9    21.1
    2010 07 03    11 55.08   -46 03.7    0.153    1.049    97.9    73.8    20.8
    2010 07 13    13 09.92   -60 14.1    0.157    1.072   106.7    65.3    20.6
    2010 07 23    15 32.92   -67 53.6    0.173    1.104   116.5    55.4    20.6
    2010 08 02    18 00.86   -65 10.9    0.202    1.144   125.2    46.5    20.8
    2010 08 12    19 21.23   -57 40.8    0.243    1.189   131.4    39.7    21.1
    2010 08 22    20 03.32   -49 59.5    0.296    1.238   134.7    35.5    21.5
    2010 09 01    20 29.74   -43 15.7    0.361    1.290   135.1    33.5    21.9
    2010 09 11    20 49.53   -37 33.2    0.437    1.344   133.2    33.1    22.4
    2010 09 21    21 06.56   -32 42.2    0.525    1.400   129.8    33.4    22.9
    2010 10 01    21 22.42   -28 32.0    0.624    1.455   125.5    34.1    23.4
    
    Carl W. Hergenrother         (C) Copyright 2010 MPC           M.P.E.C. 2010-K26
    

    Read MPEC 2010-K25 Read MPEC 2010-K27


    MPEC number:

    Enter an MPEC number in one of the following forms:

    • 1997-B01 (the full form)
    • J97B01 (the packed version of the full form)
    • B01 (the abbreviated form)